STARLINK-2637 (48356 NORAD) Tracking and Keplerian Element Data

This shows tracking and keplerian element data for the satellite.

Feedback or suggestion? Click here.




ElementValue
Catalog48356
NameSTARLINK-2637
Epoch Orbit1382
Epoch Day214.63403908
Epoch Year2021
RAAN342.3109
Inclination53.0567
Eccentricity0.0001121
Argument of Perigee116.1877
Mean Anonmoly243.9226
Mean Motion15.0233014
Decay Rate5.53E-06
L11 48356U 21038D 21214.63403908 .00000553 00000-0 61637-4 0 9993
L22 48356 53.0567 342.3109 0001121 116.1877 243.9226 15.02330140 13823

Live tracking and technical data element details for STARLINK-2637 (NORAD 48356). STARLINK-2637 can be tracked NOW for your location showing map with azimuth and elevation plus other details from your city location.

Track the satellite on the map from your city or location and see movement details for azimuth, elevation, latitude, longitude, range, height, and movement on the map or in text.







IsCatalogInMostPopularTable: catalog: 48356, numindb: 29
Update: records affected: 1



GetName: 48356 STARLINK-2637

Hit Count: updated at: Tue, 03 Aug 2021 22:29:33 GMT